Location: Eldred Sherwood Park Lake Dam
(42.9416°N, 93.5655°W)
Time: 13:30:17
(UTC+00:00)

Explorer 11/Cluster Stage 4 - Pass Details

Date: 11 December 2025
Orbit: 463 x 1180 km, 28.8° (Epoch: 13 January)

Event Time Altitude Azimuth Distance (km) Brightness Sun altitude
Rises 01:57:38 0° 221° (SW) 3,823 10.6 -35.3°
Reaches altitude 10° 02:01:47 10° 201° (SSW) 2,731 9.5 -36.1°
Enters shadow 02:02:42 12° 194° (SSW) 2,548 9.3 -36.2°
